Home > Weather > Bunbury > Past weeks

Flag for Australia Past Weather in Bunbury, Western Australia, Australia — Yesterday and Last 2 Weeks

Now
55 °F

Cool.


Feels Like: 53 °F
Forecast: 60 / 63 °F
Wind: 6 mph from Northeast

Location: Bunbury

Current Time: Jun 27, 2016 at 9:17:43 PM

Latest Report: Jun 27, 2016 at 8:00 PM


Visibility: N/A

Pressure: 29.97 "Hg

Humidity: 69%

Dew Point: 45 °F

Location of BunburyLocation

Past Weather in Bunbury — Graph

°F

Bunbury Temperature Yesterday

Maximum temperature yesterday: 63 °F (at 2:00 PM)
Minimum temperature yesterday: 39 °F (at 3:00 AM)
Average temperature yesterday: 53 °F

High & Low Weather Summary for the Past Weeks

 TemperatureHumidityPressure
High65 °F (Jun 14, 2:00 PM)96% (Jun 13, 5:00 AM)30.26 "Hg (Jun 13, 5:00 AM)
Low39 °F (Jun 26, 3:00 AM)45% (Jun 25, 3:00 PM)29.71 "Hg (Jun 19, 2:00 PM)
Average55 °F81%30.07 "Hg
* Reported Jun 12 8:00 PM — Jun 27 8:00 PM, Bunbury, Weather by CustomWeather, © 2016

Note: Actual official high and low records may vary slightly from our data, if they occured in-between our weather recording intervals... More about our weather records

Advertising

Bunbury Weather History for the Previous 24 Hours

Scroll right to see more
 ConditionsComfort  
Time TempWeatherWind HumidityBarometerVisibility
8:00 PM
Mon, Jun 27
55 °FCool.6 mph69%29.97 "HgN/A
6:00 PM58 °FCool.9 mph65%29.97 "HgN/A
5:00 PM60 °FCool.14 mph65%29.96 "HgN/A
3:00 PM61 °FCool.17 mph61%29.98 "HgN/A
2:00 PM62 °FCool.17 mph60%29.98 "HgN/A
12:00 PM58 °FCool.16 mph66%30.04 "HgN/A
11:00 AM57 °FCool.15 mph65%30.07 "HgN/A
9:00 AM55 °FCool.13 mph62%30.09 "HgN/A
8:00 AM54 °FCool.12 mph68%30.09 "HgN/A
6:00 AM54 °FCool.10 mph70%30.09 "HgN/A
5:00 AM54 °FCool.9 mph74%30.09 "HgN/A
3:00 AM56 °FCool.8 mph71%30.10 "HgN/A
2:00 AM61 °FRefreshingly cool.9 mph57%30.11 "HgN/A
12:00 AM61 °FRefreshingly cool.9 mph57%30.14 "HgN/A
11:00 PM
Sun, Jun 26
60 °FRefreshingly cool.9 mph55%30.16 "HgN/A
9:00 PM60 °FRefreshingly cool.8 mph52%30.18 "HgN/A
Weather by CustomWeather, © 2016

See weather overviewHow to use our weather pages